YCIN

RAAF Curtin

Airport
ICAO code
YCIN
IATA Code
DCN
Summary
ICAO Region
APAC
ICAO Territory
Location

Derby, Western Australia

Serving
Derby
Elevation
1000 ft
Coordinates
17° 34' 53" S , 123° 49' 42" E
KCC
Metar
YCIN 221630Z AUTO 36004KT 9999 // NCD 27/25 Q1010 RF00.0/000.0

RAAF Base Curtin, also sometimes RAAF Curtin is a joint use RAAF military air base and civilian airport located 19 nm (35 km; 22 mi) southeast of the town of Derby on the north coast of Western Australia. No RAAF units are permanently based at Curtin and it is maintained by a small caretaker staff during peacetime.

Airport map

Aerial View

SKYbrary Partners:

Safety knowledge contributed by: